Location: Monroe
(41.9160°N, 83.3980°W)
Time: 21:14:31
(UTC-04:00)

Daily predictions for brighter satellites

Satellite Brightness Start Highest point End
(mag) Time Altitude Azimuth Time Altitude Azimuth Time Altitude Azimuth
Cosmos 2208 Rocket 4.2 20:39:40 10° S 20:44:50 55° ESE 20:50:05 10° NNE
Meteor 2-15 4.5 20:38:52 10° N 20:44:54 64° E 20:50:53 10° SSE
CZ-2D R/B 3.5 20:43:29 10° SSE 20:47:13 49° ENE 20:50:59 10° N
Cosmos 1025 Rocket 3.6 20:43:30 10° NNW 20:47:51 64° W 20:52:06 10° S
Cosmos 1461 3.1 20:43:55 10° NNW 20:47:56 52° NE 20:51:47 10° SE
FengYun 1-2 T 4.3 20:42:27 10° SSE 20:48:06 88° ENE 20:53:45 10° NNW
H-2A R/B 4.1 20:48:14 10° ENE 20:49:01 10° ENE 20:49:47 10° NE
OAO 2 Rocket 4.3 20:45:07 10° SW 20:49:27 30° SSE 20:53:51 10° ESE
Meteor 2-14 Rocket 4.5 20:43:42 10° S 20:49:47 71° E 20:55:55 10° NNE
Spot 2 Rocket 4.2 20:45:40 10° S 20:50:42 59° WSW 20:55:44 10° NNW
Cosmos 1892 Rocket 3.6 20:46:15 10° N 20:50:46 84° E 20:55:15 10° S
Cosmos 2123 Rocket 4.1 20:44:43 10° N 20:50:50 58° E 20:56:53 10° SSE
Cosmos 1626 Rocket 4.5 20:47:09 10° NNE 20:51:02 29° ENE 20:54:51 10° SE
Cosmos 1455 Rocket 3.0 20:51:33 10° S 20:55:48 62° E 21:00:06 10° NNE
FENGYUN 3A 3.6 20:50:45 10° SSE 20:56:04 72° ENE 21:01:24 10° N
NOSS 7 (E) 4.3 20:53:44 10° SSW 20:57:12 73° ESE 21:00:35 10° NE
Cosmos 2227 Rocket 2.3 20:52:07 10° NNW 20:57:45 65° ENE 21:03:21 10° SE
Cosmos 1602 Rocket 4.2 20:55:47 10° N 20:59:56 36° ENE 21:04:02 10° SE
Cosmos 1656 4.3 20:55:05 10° SSE 21:00:00 32° ESE 21:04:54 10° NE
Resurs 1-3 4.3 20:56:18 10° S 21:00:36 57° W 21:04:57 10° NNW
Cosmos 1570 Rocket 4.0 20:55:21 10° SSW 21:00:38 82° ESE 21:05:57 10° NNE
Envisat 4.2 20:57:17 10° ESE 21:01:19 24° ENE 21:05:21 10° NNE
CZ-4B DEB 3.3 20:59:31 10° S 21:02:46 64° W 21:06:02 10° NNW
Cosmos 1346 Rocket 2.7 20:59:36 10° N 21:03:34 82° E 21:07:32 10° SSE
ATLAS CENTAUR R/B 4.5 21:00:12 10° W 21:04:04 22° NW 21:07:52 10° N
Cosmos 1500 4.4 21:02:49 10° SE 21:05:43 22° E 21:08:39 10° NE
NOSS 7 (H) 4.5 21:03:35 10° SSW 21:06:49 50° ESE 21:10:08 10° NE
Iridium 4 Rocket 3.8 21:04:33 10° NNE 21:09:23 40° E 21:13:47 10° SSE
Meteor 1-5 Rocket 4.2 21:04:52 10° S 21:10:12 84° W 21:15:43 10° N
ALOS 2.4 21:06:17 10° S 21:10:57 78° WSW 21:15:39 10° NNW
Cosmos 2084 4.3 21:08:18 10° NNW 21:11:59 33° NE 21:14:48 16° ESE
Cosmos 2082 3.7 21:06:22 10° NNW 21:12:01 79° ENE 21:17:38 10° SSE
Cosmos 2297 Rocket 2.3 21:07:36 10° NNW 21:13:14 62° ENE 21:18:31 12° SE
Cosmos 220 Rocket 4.1 21:13:24 10° N 21:17:33 53° ENE 21:20:50 15° SE
CZ-3C R/B 4.4 20:23:46 10° WSW 21:19:11 33° SSW 21:28:20 11° SSE
RESURS DK-1 3.8 21:16:06 10° N 21:19:25 22° NE 21:21:23 16° E
Cosmos 1934 Rocket 4.3 21:14:07 10° SSW 21:20:12 72° W 21:26:27 10° N
Resurs 01 Rocket 3.8 21:16:30 10° SSW 21:20:16 27° W 21:24:03 10° NW
USA 186 2.2 21:22:43 10° S 21:25:55 59° W 21:28:54 10° NNW
DELTA 2 R/B (1) 3.7 21:21:46 10° W 21:27:16 62° S 21:31:01 20° ESE
BREEZE-M DEB (TANK) 4.4 21:09:05 10° SW 21:27:47 60° SSE 21:32:42 11° ENE
Cosmos 1515 3.9 21:24:30 10° N 21:28:16 51° E 21:30:46 19° SSE
ERS-1 Rocket 3.1 21:27:56 14° SSE 21:32:08 59° ENE 21:37:04 10° N
Cosmos 1898 Rocket 3.6 21:34:54 10° NNW 21:40:11 62° ENE 21:43:26 23° SE
OTV 4 2.1 21:38:20 10° WSW 21:40:42 22° SSW 21:41:08 21° S
Cosmos 1743 3.5 21:40:00 29° ESE 21:40:43 31° E 21:44:12 10° NNE
BREEZE-M DEB (TANK) 4.4 21:38:57 10° WSW 21:43:18 89° SE 22:00:27 10° ENE
Cosmos 1763 Rocket 4.3 21:43:23 26° ESE 21:44:00 27° E 21:48:12 10° NE
Lacrosse 5 2.3 21:40:42 10° NW 21:45:39 51° NE 21:48:07 27° ESE
Cosmos 1066 Rocket 4.2 21:41:00 10° N 21:46:39 69° ENE 21:50:49 19° SSE
Tiangong 1 1.0 21:44:02 10° W 21:47:08 76° N 21:47:55 46° E
Cosmos 2016 Rocket 4.4 21:47:10 23° SE 21:50:26 39° E 21:56:07 10° NNE
Cosmos 1697 Rocket 2.6 21:45:28 10° S 21:51:02 64° ESE 21:56:38 10° NNE
SPOT 5 3.3 21:50:57 30° ESE 21:52:54 44° ENE 21:57:30 10° N
Cosmos 1975 3.6 21:51:13 10° SSW 21:55:15 55° W 21:59:18 10° N
Cosmos 468 Rocket 3.8 21:52:47 10° SSW 21:57:54 77° ESE 22:03:02 10° NNE
SL-16 R/B 4.3 22:00:59 11° ENE 22:00:59 11° ENE 22:01:12 10° ENE
Cosmos 1726 Rocket 4.3 21:58:23 33° E 21:58:23 33° E 22:02:11 10° NNE
SL-24 R/B - RUBIN 2 4.4 21:55:04 10° SW 22:00:57 83° NW 22:07:30 10° NNE
Cosmos 2173 Rocket 4.0 21:56:38 10° S 22:02:57 70° E 22:09:15 10° NNE
Lacrosse 5 rocket 2.1 22:01:08 10° WNW 22:04:33 35° SW 22:05:31 30° SSW
USA 215 4.2 22:00:24 18° E 22:04:41 37° NNE 22:10:34 10° NW
Cosmos 841 Rocket 3.9 22:05:13 37° ESE 22:05:29 37° ESE 22:10:17 10° NE
Cosmos 1814 Rocket 3.9 22:01:53 10° SSW 22:07:13 78° ESE 22:12:33 10° NNE
Cosmos 972 Rocket 4.4 22:02:31 10° NNW 22:08:28 84° ENE 22:12:04 29° SSE
Cosmos 1825 Rocket 3.4 22:07:05 10° N 22:11:31 72° E 22:12:29 52° SE
CZ-4 DEB 4.4 22:11:14 21° SW 22:12:36 31° W 22:15:27 10° NNW
ARGOS 3.7 22:12:12 35° E 22:13:13 39° ENE 22:18:10 10° N
Cosmos 1980 Rocket 2.2 22:08:04 10° S 22:13:37 60° ESE 22:19:14 10° NNE
Cosmos 2100 Rocket 4.0 22:08:41 10° S 22:14:59 87° W 22:21:15 10° N
Cosmos 2061 Rocket 4.0 22:12:39 10° S 22:18:59 90° W 22:25:17 10° N
Cosmos 1953 Rocket 3.5 22:16:42 10° N 22:21:08 66° E 22:21:30 63° ESE
Tsikada Rocket 4.4 22:15:53 10° N 22:22:04 47° ENE 22:23:28 41° ESE
H-2A R/B 2.0 22:23:38 55° SSW 22:24:24 73° WSW 22:28:33 10° NNW
Terra 3.5 22:28:05 20° NE 22:28:05 20° NE 22:31:02 10° NNE
Cosmos 1939 Rocket 4.1 22:26:46 25° SSW 22:28:35 39° W 22:32:31 10° NNW
Milstar 3 Cent rocket 4.4 22:11:04 10° W 22:29:39 43° SSW 22:34:14 32° SSE
MetOp-B 4.0 22:28:30 50° SSE 22:29:59 85° ENE 22:35:22 10° NNW
Cosmos 1666 4.0 22:31:53 29° NNE 22:31:53 29° NNE 22:33:58 10° NNE
OAO 2 Rocket 4.1 22:29:01 10° WSW 22:33:00 36° SSW 22:33:00 36° SSW
deb Chang Zheng 4 4.1 22:32:55 10° N 22:37:19 59° WNW 22:39:28 28° SW
ASTEX 1 3.3 22:33:12 10° N 22:38:15 87° W 22:39:19 56° SSW
Cosmos 2228 4.3 22:41:51 29° NE 22:41:51 29° NE 22:44:10 10° NNE
Envisat 4.0 22:37:25 23° SSW 22:40:04 42° W 22:44:53 10° NNW
Cosmos 1758 Rocket 3.5 22:35:42 10° N 22:39:54 82° N 22:39:54 82° N
Meteor 1-21 4.3 22:35:14 10° NNW 22:41:00 75° W 22:42:53 44° S
Cosmos 2263 Rocket 3.5 22:36:59 10° N 22:41:34 25° NE 22:41:51 25° ENE
Cosmos 1937 Rocket 4.2 22:39:55 10° NNW 22:44:59 49° WSW 22:46:32 37° SSW
Cosmos 2322 Rocket 3.3 22:48:05 28° ENE 22:48:05 28° ENE 22:51:02 10° NE
H-2A R/B 2.8 22:48:51 38° NE 22:48:51 38° NE 22:52:47 10° N
Cosmos 1725 Rocket 3.8 22:47:52 57° SSE 22:49:12 78° E 22:55:27 10° N
Cosmos 1340 3.9 22:50:06 10° NNW 22:53:18 38° W 22:53:18 38° W
Cosmos 2360 4.1 22:53:09 52° SSW 22:54:38 90° W 23:00:24 10° NNE
Meteor 2-9 Rocket 4.0 22:56:00 75° SSW 22:56:30 89° WNW 23:01:57 10° N
Cosmos 2297 Rocket 4.4 22:52:55 10° WNW 22:56:42 19° W 23:00:22 10° SW
RESURS DK-1 3.7 22:53:48 10° NW 22:57:19 33° W 22:57:19 33° W
YAOGAN 6 4.2 23:01:27 33° WNW 23:01:27 33° WNW 23:04:08 10° NNW
Cosmos 2098 Rocket 4.1 22:58:17 38° SSW 23:01:10 77° W 23:07:06 10° N
Cosmos 2227 4.3 22:56:28 10° NNW 23:02:11 68° WSW 23:02:41 65° SW
Cosmos 2058 Rocket 3.6 23:03:28 59° NW 23:03:28 59° NW 23:07:31 10° N
CZ-4B R/B 3.7 22:58:17 10° NNE 23:02:03 56° NNE 23:02:03 56° NNE
Meteor 2-17 Rocket 4.4 23:04:13 63° ENE 23:04:13 63° ENE 23:09:47 10° NNE
SPOT 1/Viking Rocket 3.7 23:07:00 65° WSW 23:07:09 66° WSW 23:12:22 10° NNW
Cosmos 2233 Rocket 3.9 23:15:54 75° ENE 23:15:54 75° ENE 23:21:50 10° N
Lacrosse 5 3.5 23:24:03 10° WNW 23:27:19 27° WSW 23:27:19 27° WSW
Cosmos 1125 Rocket 4.0 23:23:17 10° NNW 23:27:33 56° NW 23:27:33 56° NW
SL-16 R/B 2.8 23:42:47 51° N 23:42:47 51° N 23:47:05 10° NNE
USA 215 3.2 23:47:44 78° WNW 23:47:44 78° WNW 23:53:52 10° NW
Cosmos 1844 Rocket 4.5 23:50:04 10° N 23:53:29 22° NE 23:53:29 22° NE
